Showing default

QUBE, 60476

Orbit data source: Space-Track

QUBE, 60476 is a payload satellite owned by ZfT (DE) in SSO that was launched on Fri, 16 Aug 2024 UTC via an FALCON 9 launch vehicle from the Air Force Western Test Range (AFWTR). Payload-class satellites include a variety of spacecraft equipped with specific instruments for various scientific and technological missions. These include communications satellites like Starlink; space stations such as the ISS; scientific satellites like the Hubble; Earth observation satellites from companies like Planet Labs, Umbra, and HawkEye 360; GPS; miniature CubeSats for education and research; and military/defense satellites.

Loading next visibility...
Identifier
60476, 2024-149J
Orbit
SSO
Country
Flag of DEDE / GER
Related business
Manufacturer
ZfT
Mission
Operational Commercial Communications
Bus & Motor
CUBESAT 3U, Unknown motor
Mass
4 kg wet, 4 kg dry
Launch date (UTC)
2024-08-16 (1 year ago)
Launch vehicle
FALCON 9
Launch site
Air Force Western Test Range (AFWTR)
Object type
Payload
Rocket body
Debris
Shape & HBR
Box, 0.1 m
Radar Cross Section
0.035 m², Small (<0.1 m²)

Expand to show TLE details & history
Last TLE update: 7 hours ago

TLE from 7 hours ago
0 QUBE
1 60476U 24149J   25291.18317648  .00028828  00000-0  85892-3 0  9993
2 60476  97.4012   9.9137 0002754  46.8077 313.3396 15.34638143 65194
Epoch: 2025-10-18T04:23Z
TLE epoch observation values (Epoch: 2025-10-18T04:23:46.447Z)
Latitude
-0.00002°
Longitude
-82.94768°
Altitude
463.813 km
Speed
7.635 km/s
True Right ascension
00h 39m 39s
True Declination
0° 00' 00"
Sunlit
Object was in full shadow at epoch
Visualization orbit readout
Latitude
Unknown
Longitude
Unknown
Altitude
Unknown
Speed
Unknown
Apparent Right ascension
Unknown
Apparent Declination
Unknown
Sunlit
N/A
Visualization observer readout
Local Sidereal Time
05:49:36
Azimuth
Unknown
Elevation
Unknown
Doppler factor
Unknown
Orbital elements
Apogee altitude
460.825 km
Perigee altitude
457.059 km
Semi-major axis
6,837.079 km
Eccentricity
0.00028
Inclination
97.4012°
RAAN
9.9137°
Arg. of periapsis
46.8077°
True anomaly
313.31664°
Mean anomaly
313.3396°
Eccentric anomaly
313.32812°
Mean motion
3.83917 °/min
Orbital period
93.77 mins
BSTAR
0.00085892
Loading maneuver chart data...
Computing Atmospheric mass density...
Loading historical data...
Loading historical data...
Loading historical data...
Loading historical data...
Loading historical data...
Loading historical data...
Loading historical data...

Documentation

Showing up to 5 results
|